This demonstration page uses our WeatherBlox Daily Observations layout. Learn more.

Left ArrowRight Arrow

39.01783, -85.05884

Hourly Observations for October 7, 2020

Temp ( °F °C ) Dew Point ( °F °C ) Humidity (%) Winds ( mph kmh ) Pressure ( in mb ) Visibility ( mi km ) Precip ( " mm )
12:52 am 00:52 Clear 58 14.4 41 5 53 53 SW 9 15 29.96 1015 10 16.0934 0 0
1:52 am 01:52 Clear 56 13.3 42 5.6 60 60 SW 8 13 29.97 1015 10 16.0934 0 0
2:52 am 02:52 Clear 54 12.2 42 5.6 64 64 SSW 7 11 29.96 1014 10 16.0934 0 0
3:52 am 03:52 Clear 54 12.2 43 6.1 67 67 SSW 8 13 29.95 1014 10 16.0934 0 0
4:52 am 04:52 Clear 54 12.2 43 6.1 67 67 SSW 8 13 29.94 1014 10 16.0934 0 0
5:52 am 05:52 Clear 54 12.2 43 6.1 67 67 SSW 9 15 29.93 1014 10 16.0934 0 0
6:52 am 06:52 Clear 54 12.2 44 6.7 69 69 SW 9 15 29.94 1014 10 16.0934 0 0
7:52 am 07:52 Sunny 53 11.7 44 6.7 72 72 SW 8 13 29.95 1014 10 16.0934 0 0
8:52 am 08:52 Sunny 56 13.3 45 7.2 67 67 SW 10 17 29.96 1014 10 16.0934 0 0
9:52 am 09:52 Sunny 60 15.6 47 8.3 62 62 SW 10 17 29.97 1015 10 16.0934 0 0
10:52 am 10:52 Sunny 66 18.9 50 10 56 56 SW 12 19 29.95 1014 10 16.0934 0 0
11:52 am 11:52 Sunny 71 21.7 53 11.7 53 53 WSW 14 22 29.94 1014 10 16.0934 0 0
12:52 pm 12:52 Sunny 76 24.4 54 12.2 47 47 SW 13 20 29.94 1014 10 16.0934 0 0
1:52 pm 13:52 Sunny 79 26.1 54 12.2 42 42 SW 13 20 29.91 1013 10 16.0934 0 0
2:52 pm 14:52 Sunny 81 27.2 54 12.2 39 39 WSW 12 19 29.89 1012 10 16.0934 0 0
3:52 pm 15:52 Sunny 84 28.9 51 10.6 32 32 W 22 35 29.89 1012 10 16.0934 0 0
4:52 pm 16:52 Sunny 84 28.9 52 11.1 33 33 W 15 24 29.89 1012 10 16.0934 0 0
5:52 pm 17:52 Sunny 82 27.8 50 10 33 33 WNW 13 20 29.9 1013 10 16.0934 0 0
6:52 pm 18:52 Sunny 77 25 52 11.1 42 42 W 7 11 29.92 1013 10 16.0934 0 0
7:52 pm 19:52 Clear 74 23.3 52 11.1 46 46 W 5 7 29.94 1014 10 16.0934 0 0
8:52 pm 20:52 Clear 66 18.9 53 11.7 63 63 W 5 7 29.96 1015 10 16.0934 0 0
9:52 pm 21:52 Clear 65 18.3 53 11.7 66 66 WSW 3 6 29.98 1015 10 16.0934 0 0
10:52 pm 22:52 Clear 68 20 47 8.3 47 47 N 10 17 30.01 1016 10 16.0934 0 0
11:52 pm 23:52 Clear 65 18.3 42 5.6 43 43 NNE 9 15 30.02 1017 10 16.0934 0 0

Powered by AerisWeather